TimeEDT,TemperatureF,Dew PointF,Humidity,Sea Level PressureIn,VisibilityMPH,Wind Direction,Wind SpeedMPH,Gust SpeedMPH,PrecipitationIn,Events,Conditions,WindDirDegrees,DateUTC
12:54 AM,34.0,18.0,52,30.11,10.0,NW,10.4,-,N/A,,Mostly Cloudy,310,2013-04-06 04:54:00
1:54 AM,32.0,15.1,50,30.14,10.0,NNW,12.7,-,N/A,,Mostly Cloudy,330,2013-04-06 05:54:00
2:54 AM,30.0,15.1,54,30.17,10.0,NW,5.8,-,N/A,,Partly Cloudy,320,2013-04-06 06:54:00
3:54 AM,28.9,14.0,54,30.20,10.0,NW,8.1,-,N/A,,Partly Cloudy,310,2013-04-06 07:54:00
4:54 AM,28.0,14.0,56,30.22,10.0,North,8.1,-,N/A,,Clear,350,2013-04-06 08:54:00
5:54 AM,26.1,12.9,58,30.26,10.0,North,5.8,-,N/A,,Clear,360,2013-04-06 09:54:00
6:54 AM,26.1,12.0,55,30.28,10.0,NNE,4.6,-,N/A,,Clear,20,2013-04-06 10:54:00
7:54 AM,28.9,10.9,47,30.30,10.0,NNE,4.6,-,N/A,,Clear,30,2013-04-06 11:54:00
8:54 AM,30.9,7.0,37,30.32,10.0,North,8.1,-,N/A,,Clear,360,2013-04-06 12:54:00
9:54 AM,33.1,6.1,32,30.34,10.0,Calm,Calm,-,N/A,,Clear,0,2013-04-06 13:54:00
10:54 AM,36.0,6.1,29,30.34,10.0,NW,9.2,-,N/A,,Clear,310,2013-04-06 14:54:00
11:54 AM,36.0,5.0,27,30.33,10.0,NNW,4.6,-,N/A,,Partly Cloudy,330,2013-04-06 15:54:00
12:54 PM,39.0,5.0,24,30.32,10.0,North,6.9,-,N/A,,Scattered Clouds,350,2013-04-06 16:54:00
1:54 PM,41.0,7.0,25,30.30,10.0,Variable,4.6,-,N/A,,Scattered Clouds,0,2013-04-06 17:54:00
2:54 PM,42.1,8.1,25,30.29,10.0,South,6.9,-,N/A,,Mostly Cloudy,180,2013-04-06 18:54:00
3:54 PM,43.0,8.1,24,30.26,10.0,South,5.8,-,N/A,,Mostly Cloudy,190,2013-04-06 19:54:00
4:54 PM,44.1,9.0,24,30.23,10.0,ENE,4.6,-,N/A,,Scattered Clouds,70,2013-04-06 20:54:00
5:54 PM,44.1,7.0,22,30.22,10.0,NE,4.6,-,N/A,,Scattered Clouds,50,2013-04-06 21:54:00
6:54 PM,41.0,10.9,29,30.22,10.0,NE,8.1,-,N/A,,Mostly Cloudy,50,2013-04-06 22:54:00
7:54 PM,39.0,10.0,30,30.21,10.0,East,6.9,-,N/A,,Mostly Cloudy,80,2013-04-06 23:54:00
8:54 PM,39.0,9.0,29,30.20,10.0,East,10.4,-,N/A,,Mostly Cloudy,80,2013-04-07 00:54:00
9:54 PM,37.0,12.0,36,30.18,10.0,East,10.4,-,N/A,,Mostly Cloudy,90,2013-04-07 01:54:00
10:54 PM,36.0,14.0,41,30.16,10.0,East,8.1,-,N/A,,Scattered Clouds,80,2013-04-07 02:54:00
11:54 PM,37.0,15.1,41,30.13,10.0,East,9.2,-,N/A,,Mostly Cloudy,90,2013-04-07 03:54:00